When you browse on this site, cookies collect data to enhance your experience and personalize the content and advertising you see.
Visit our Privacy Policy to learn more. By continuing to use the site, you agree to this use of cookies and data.
  • In United Kingdom
  • List of Countries
  • For 7 days
  • Water Temperature
  • Satellite Maps
  • Weather Map
  • Weather Widgets
  • user-avatar
    Login

    Hourly Weather Santa Rita

    Today, 20 June, Thursday

    Time Temperature Precipitation Wind Pressure Humidity
    00:00 +26°C° 0.4 mm 1 mps 750 mmHg 94%
    01:00 +26°C° 0 mm 1 mps 750 mmHg 94%
    02:00 +25°C° 0.4 mm 1 mps 750 mmHg 94%
    03:00 +25°C° 0.4 mm 1 mps 750 mmHg 95%
    04:00 +23°C° 0.4 mm 0 mps 750 mmHg 95%
    05:00 +26°C° 1.1 mm 1 mps 750 mmHg 94%
    06:00 +26°C° 1.1 mm 1 mps 751 mmHg 93%
    07:00 +27°C° 1.1 mm 1 mps 751 mmHg 92%
    08:00 +28°C° 1.8 mm 1 mps 751 mmHg 88%
    09:00 +29°C° 1.8 mm 1 mps 751 mmHg 83%
    10:00 +28°C° 1.8 mm 0 mps 751 mmHg 79%
    11:00 +28°C° 2 mm 0 mps 751 mmHg 77%
    12:00 +29°C° 2 mm 0 mps 750 mmHg 75%
    13:00 +29°C° 2 mm 0 mps 750 mmHg 74%
    14:00 +29°C° 1.4 mm 0 mps 749 mmHg 74%
    15:00 +29°C° 1.4 mm 0 mps 749 mmHg 75%
    16:00 +31°C° 1.4 mm 1 mps 749 mmHg 75%
    17:00 +29°C° 0.5 mm 1 mps 749 mmHg 80%
    18:00 +28°C° 0.5 mm 1 mps 750 mmHg 85%
    19:00 +27°C° 0.5 mm 1 mps 750 mmHg 90%
    20:00 +27°C° 1 mm 1 mps 751 mmHg 90%
    21:00 +26°C° 1 mm 2 mps 751 mmHg 91%
    22:00 +26°C° 1 mm 2 mps 751 mmHg 91%
    23:00 +26°C° 0.2 mm 2 mps 751 mmHg 92%

    Tomorrow, 21 June, Friday

    Time Temperature Precipitation Wind Pressure Humidity
    00:00 +26°C° 0.2 mm 2 mps 751 mmHg 92%
    01:00 +26°C° 0.2 mm 2 mps 750 mmHg 93%
    02:00 +26°C° 1.3 mm 2 mps 750 mmHg 94%
    03:00 +25°C° 1.3 mm 2 mps 750 mmHg 95%
    04:00 +25°C° 1.3 mm 2 mps 750 mmHg 96%
    05:00 +25°C° 1.1 mm 2 mps 751 mmHg 96%
    06:00 +25°C° 1.1 mm 3 mps 751 mmHg 96%
    07:00 +25°C° 1.1 mm 3 mps 752 mmHg 96%
    08:00 +25°C° 0.2 mm 3 mps 752 mmHg 94%
    09:00 +26°C° 0.2 mm 3 mps 752 mmHg 92%
    10:00 +27°C° 0.2 mm 2 mps 753 mmHg 90%
    11:00 +27°C° 0.1 mm 3 mps 752 mmHg 89%
    12:00 +27°C° 0.1 mm 3 mps 751 mmHg 87%
    13:00 +28°C° 0.1 mm 3 mps 750 mmHg 86%
    14:00 +28°C° 0.1 mm 3 mps 750 mmHg 85%
    15:00 +28°C° 0.1 mm 3 mps 750 mmHg 84%
    16:00 +28°C° 0.1 mm 3 mps 749 mmHg 83%
    17:00 +27°C° 0.1 mm 3 mps 750 mmHg 86%
    18:00 +27°C° 0.1 mm 3 mps 750 mmHg 90%
    19:00 +26°C° 0.1 mm 2 mps 751 mmHg 93%
    20:00 +26°C° 0.2 mm 2 mps 751 mmHg 93%
    21:00 +25°C° 0.2 mm 2 mps 752 mmHg 94%
    22:00 +25°C° 0.2 mm 2 mps 752 mmHg 95%
    23:00 +25°C° 0.5 mm 2 mps 752 mmHg 95%

    Day after tomorrow, 22 June, Saturday

    Time Temperature Precipitation Wind Pressure Humidity
    00:00 +25°C° 0.5 mm 2 mps 752 mmHg 96%
    01:00 +25°C° 0.5 mm 2 mps 751 mmHg 97%
    02:00 +25°C° 1.4 mm 2 mps 751 mmHg 97%
    03:00 +25°C° 1.4 mm 2 mps 751 mmHg 98%
    04:00 +25°C° 1.4 mm 2 mps 751 mmHg 98%
    05:00 +25°C° 1.5 mm 2 mps 751 mmHg 98%
    06:00 +25°C° 1.5 mm 2 mps 752 mmHg 98%
    07:00 +25°C° 1.5 mm 3 mps 752 mmHg 97%
    08:00 +25°C° 1.6 mm 2 mps 753 mmHg 97%
    09:00 +25°C° 1.6 mm 2 mps 753 mmHg 97%
    10:00 +25°C° 1.6 mm 1 mps 753 mmHg 97%
    11:00 +25°C° 0.6 mm 1 mps 753 mmHg 96%
    12:00 +25°C° 0.6 mm 1 mps 752 mmHg 95%
    13:00 +25°C° 0.6 mm 1 mps 751 mmHg 94%
    14:00 +26°C° 0 mm 1 mps 750 mmHg 89%
    15:00 +27°C° 0 mm 1 mps 750 mmHg 84%
    16:00 +28°C° 0 mm 1 mps 749 mmHg 79%
    17:00 +27°C° 0 mm 1 mps 749 mmHg 84%
    18:00 +26°C° 0 mm 1 mps 750 mmHg 88%
    19:00 +25°C° 0 mm 1 mps 750 mmHg 92%
    20:00 +25°C° 0 mm 1 mps 751 mmHg 92%
    21:00 +25°C° 0 mm 1 mps 752 mmHg 92%
    22:00 +23°C° 0 mm 0 mps 752 mmHg 91%
    23:00 +23°C° 0.1 mm 0 mps 752 mmHg 92%

    23 June, Sunday

    Time Temperature Precipitation Wind Pressure Humidity
    00:00 +23°C° 0.1 mm 0 mps 751 mmHg 93%
    01:00 +23°C° 0.1 mm 0 mps 751 mmHg 94%
    02:00 +25°C° 0.6 mm 1 mps 751 mmHg 95%
    03:00 +25°C° 0.6 mm 1 mps 751 mmHg 96%
    04:00 +25°C° 0.6 mm 1 mps 751 mmHg 97%
    05:00 +24°C° 1.1 mm 1 mps 751 mmHg 97%
    06:00 +24°C° 1.1 mm 1 mps 752 mmHg 97%
    07:00 +24°C° 1.1 mm 2 mps 752 mmHg 97%
    08:00 +24°C° 1.7 mm 1 mps 753 mmHg 97%
    09:00 +24°C° 1.7 mm 1 mps 753 mmHg 97%
    10:00 +24°C° 1.7 mm 1 mps 753 mmHg 97%
    11:00 +24°C° 1.4 mm 1 mps 752 mmHg 97%
    12:00 +24°C° 1.4 mm 1 mps 752 mmHg 96%
    13:00 +24°C° 1.4 mm 1 mps 751 mmHg 95%
    14:00 +25°C° 0 mm 1 mps 750 mmHg 92%
    15:00 +26°C° 0 mm 1 mps 750 mmHg 88%
    16:00 +27°C° 0 mm 1 mps 749 mmHg 84%
    17:00 +26°C° 0 mm 1 mps 749 mmHg 86%
    18:00 +25°C° 0 mm 1 mps 750 mmHg 89%
    19:00 +23°C° 0 mm 0 mps 750 mmHg 91%
    20:00 +25°C° 0 mm 1 mps 751 mmHg 92%
    21:00 +25°C° 0 mm 1 mps 751 mmHg 92%
    22:00 +25°C° 0 mm 1 mps 751 mmHg 92%
    23:00 +24°C° 0.2 mm 1 mps 751 mmHg 93%

    24 June, Monday

    Time Temperature Precipitation Wind Pressure Humidity
    00:00 +24°C° 0.2 mm 1 mps 751 mmHg 95%
    01:00 +24°C° 0.2 mm 1 mps 750 mmHg 96%
    02:00 +24°C° 0 mm 1 mps 750 mmHg 96%
    03:00 +24°C° 0 mm 1 mps 750 mmHg 97%
    04:00 +24°C° 0 mm 1 mps 750 mmHg 97%
    05:00 +24°C° 0 mm 1 mps 750 mmHg 95%
    06:00 +24°C° 0 mm 1 mps 751 mmHg 93%
    07:00 +25°C° 0 mm 1 mps 751 mmHg 91%
    08:00 +26°C° 0 mm 1 mps 751 mmHg 86%
    09:00 +27°C° 0 mm 2 mps 752 mmHg 82%
    10:00 +28°C° 0 mm 2 mps 752 mmHg 77%
    11:00 +29°C° 0.4 mm 2 mps 751 mmHg 77%
    12:00 +29°C° 0.4 mm 2 mps 750 mmHg 76%
    13:00 +30°C° 0.4 mm 2 mps 749 mmHg 76%
    14:00 +29°C° 0.2 mm 2 mps 748 mmHg 78%
    15:00 +29°C° 0.2 mm 3 mps 748 mmHg 80%
    16:00 +29°C° 0.2 mm 3 mps 747 mmHg 81%
    17:00 +28°C° 0.1 mm 2 mps 748 mmHg 85%
    18:00 +27°C° 0.1 mm 2 mps 748 mmHg 88%
    19:00 +26°C° 0.1 mm 2 mps 749 mmHg 92%
    20:00 +26°C° 0 mm 2 mps 749 mmHg 92%
    21:00 +25°C° 0 mm 1 mps 750 mmHg 93%
    22:00 +25°C° 0 mm 1 mps 750 mmHg 93%
    23:00 +25°C° 0 mm 1 mps 750 mmHg 93%

    25 June, Tuesday

    Time Temperature Precipitation Wind Pressure Humidity
    00:00 +25°C° 0 mm 1 mps 749 mmHg 93%
    01:00 +25°C° 0 mm 1 mps 749 mmHg 93%
    02:00 +25°C° 0.1 mm 1 mps 748 mmHg 93%
    03:00 +25°C° 0.1 mm 1 mps 748 mmHg 93%
    04:00 +25°C° 0.1 mm 1 mps 748 mmHg 93%
    05:00 +25°C° 0.1 mm 1 mps 749 mmHg 93%
    06:00 +26°C° 0.1 mm 1 mps 749 mmHg 92%
    07:00 +26°C° 0.1 mm 1 mps 750 mmHg 91%
    08:00 +27°C° 0.9 mm 2 mps 750 mmHg 89%
    09:00 +28°C° 0.9 mm 2 mps 750 mmHg 86%
    10:00 +29°C° 0.9 mm 2 mps 750 mmHg 83%
    11:00 +29°C° 1.3 mm 2 mps 750 mmHg 83%
    12:00 +29°C° 1.3 mm 2 mps 749 mmHg 84%
    13:00 +29°C° 1.3 mm 1 mps 748 mmHg 84%
    14:00 +29°C° 0.9 mm 2 mps 747 mmHg 84%
    15:00 +29°C° 0.9 mm 2 mps 747 mmHg 84%
    16:00 +29°C° 0.9 mm 2 mps 746 mmHg 84%
    17:00 +28°C° 0.6 mm 2 mps 747 mmHg 87%
    18:00 +27°C° 0.6 mm 2 mps 747 mmHg 90%
    19:00 +26°C° 0.6 mm 2 mps 748 mmHg 93%
    20:00 +26°C° 0.1 mm 2 mps 748 mmHg 93%
    21:00 +26°C° 0.1 mm 1 mps 749 mmHg 94%
    22:00 +26°C° 0.1 mm 1 mps 749 mmHg 94%
    23:00 +25°C° 0.8 mm 1 mps 749 mmHg 95%
    Show more